YR445 LRIA-LRIA

Flight info

Callsign YR445
Flight time 0h 1m
Altitude 4000
Route ABOLO
Aircraft C172/L-SFG/C

Departure

Time 2026-04-28 16:28
Airport Iaşi International Airport (LRIA)

Arrival

Time 2026-04-28 16:30
Airport Iaşi International Airport (LRIA)
Time Latitude Longitude Altitude Speed Heading
2026-04-28 16:19 47.17736 27.61829 372 ft 0 kts 246°
2026-04-28 16:22 47.17736 27.61828 372 ft 1 kts 247°
2026-04-28 16:22 47.17748 27.61818 372 ft 4 kts 49°
2026-04-28 16:22 47.17742 27.61847 372 ft 0 kts 113°
2026-04-28 16:24 47.17739 27.61859 372 ft 9 kts 107°
2026-04-28 16:24 47.17715 27.61931 370 ft 9 kts 141°
2026-04-28 16:24 47.17651 27.61985 368 ft 12 kts 151°
2026-04-28 16:25 47.17569 27.62052 365 ft 13 kts 150°
2026-04-28 16:25 47.17483 27.62114 362 ft 14 kts 145°
2026-04-28 16:25 47.17389 27.62200 358 ft 22 kts 148°
2026-04-28 16:25 47.17270 27.62321 354 ft 18 kts 124°
2026-04-28 16:26 47.17269 27.62392 354 ft 0 kts 66°
2026-04-28 16:26 47.17280 27.62421 359 ft 9 kts 58°
2026-04-28 16:26 47.17318 27.62520 353 ft 18 kts 57°
2026-04-28 16:26 47.17397 27.62634 356 ft 15 kts 347°
2026-04-28 16:27 47.17633 27.62434 362 ft 60 kts 329°
2026-04-28 16:27 47.17981 27.62102 544 ft 58 kts 326°
2026-04-28 16:27 47.18648 27.61326 788 ft 60 kts 330°
2026-04-28 16:28 47.19042 27.61430 894 ft 70 kts 36°
2026-04-28 16:28 47.19163 27.62171 977 ft 87 kts 98°
2026-04-28 16:28 47.18733 27.62895 1014 ft 101 kts 148°
2026-04-28 16:28 47.18081 27.63433 958 ft 105 kts 147°
2026-04-28 16:29 47.16996 27.64126 1001 ft 72 kts 174°
2026-04-28 16:29 47.16688 27.63314 569 ft 52 kts 319°
2026-04-28 16:30 47.16956 27.63041 454 ft 47 kts 331°
2026-04-28 16:30 47.17241 27.62780 366 ft 43 kts 332°
2026-04-28 16:30 47.17432 27.62615 357 ft 33 kts 329°
2026-04-28 16:30 47.17660 27.62384 486 ft 41 kts 322°
2026-04-28 16:31 47.17990 27.62084 564 ft 60 kts 330°
2026-04-28 16:31 47.18362 27.61761 690 ft 63 kts 329°
2026-04-28 16:31 47.18757 27.61452 802 ft 64 kts 343°
2026-04-28 16:31 47.19175 27.61738 846 ft 83 kts 52°
2026-04-28 16:32 47.19057 27.62555 971 ft 93 kts 121°
2026-04-28 16:32 47.17945 27.63524 1260 ft 94 kts 151°
2026-04-28 16:32 47.17366 27.64002 1240 ft 89 kts 154°
2026-04-28 16:33 47.16881 27.64170 1074 ft 67 kts 199°
2026-04-28 16:33 47.16661 27.63836 892 ft 77 kts 268°
2026-04-28 16:33 47.16853 27.63164 521 ft 51 kts 326°
2026-04-28 16:33 47.17119 27.62892 414 ft 45 kts 324°
2026-04-28 16:34 47.17367 27.62665 362 ft 40 kts 333°
2026-04-28 16:34 47.17584 27.62479 360 ft 46 kts 332°
2026-04-28 16:34 47.17930 27.62163 453 ft 63 kts 330°
2026-04-28 16:34 47.18303 27.61837 630 ft 63 kts 331°
2026-04-28 16:35 47.18683 27.61508 761 ft 63 kts 328°
2026-04-28 16:35 47.19078 27.61444 928 ft 60 kts 16°
2026-04-28 16:35 47.19208 27.62074 999 ft 86 kts 103°
2026-04-28 16:35 47.18761 27.62664 1149 ft 91 kts 152°
2026-04-28 16:36 47.18170 27.63144 1193 ft 103 kts 151°
2026-04-28 16:36 47.17558 27.63674 1290 ft 102 kts 153°
2026-04-28 16:36 47.16908 27.63803 1413 ft 98 kts 199°
2026-04-28 16:36 47.16312 27.63301 1384 ft 101 kts 233°
2026-04-28 16:37 47.15973 27.62474 1446 ft 93 kts 255°
2026-04-28 16:37 47.15732 27.61606 1499 ft 91 kts 257°
2026-04-28 16:37 47.15515 27.60732 1547 ft 91 kts 259°
2026-04-28 16:38 47.15219 27.58963 1630 ft 91 kts 270°
2026-04-28 16:38 47.15086 27.58081 1759 ft 86 kts 246°
2026-04-28 16:38 47.14542 27.57679 1877 ft 96 kts 181°
2026-04-28 16:38 47.13931 27.58062 1798 ft 92 kts 138°
2026-04-28 16:39 47.13594 27.58788 1974 ft 79 kts 95°
2026-04-28 16:39 47.13780 27.59549 1972 ft 84 kts 47°
2026-04-28 16:39 47.14185 27.60132 2035 ft 83 kts 21°
2026-04-28 16:39 47.14789 27.60238 1952 ft 89 kts 350°
2026-04-28 16:40 47.15322 27.59885 1993 ft 82 kts 323°
2026-04-28 16:40 47.15716 27.59275 2008 ft 82 kts 313°
2026-04-28 16:40 47.16068 27.58631 2068 ft 77 kts 321°
2026-04-28 16:40 47.16254 27.58335 1961 ft 68 kts 340°
2026-04-28 16:41 47.16573 27.58069 2138 ft 16 kts 248°
2026-04-28 16:41 47.16476 27.57842 1017 ft 79 kts 252°
2026-04-28 16:41 47.16293 27.57252 1326 ft 59 kts 252°
2026-04-28 16:41 47.16071 27.56735 1454 ft 69 kts 246°
2026-04-28 16:42 47.15790 27.56096 1536 ft 76 kts 243°
2026-04-28 16:42 47.15488 27.55571 1768 ft 66 kts 231°
2026-04-28 16:42 47.15041 27.55318 1785 ft 87 kts 156°
2026-04-28 16:42 47.14838 27.56132 1699 ft 90 kts 89°
2026-04-28 16:43 47.14689 27.56112 1560 ft 75 kts 337°
2026-04-28 16:43 47.14784 27.55693 1487 ft 75 kts 251°
2026-04-28 16:43 47.14751 27.55421 943 ft 45 kts 86°
2026-04-28 16:43 47.14322 27.55546 992 ft 61 kts 172°
2026-04-28 16:44 47.13917 27.55760 1115 ft 68 kts 124°
2026-04-28 16:44 47.13884 27.56418 1223 ft 67 kts 64°
2026-04-28 16:44 47.14065 27.57024 1374 ft 69 kts 52°
2026-04-28 16:44 47.14275 27.57787 1447 ft 81 kts 64°
2026-04-28 16:45 47.14431 27.58693 1381 ft 100 kts 74°
2026-04-28 16:45 47.14551 27.59686 1419 ft 96 kts 73°
2026-04-28 16:45 47.14640 27.60637 1413 ft 97 kts 81°
2026-04-28 16:45 47.14643 27.61651 1376 ft 97 kts 81°
2026-04-28 16:46 47.14801 27.62480 1377 ft 83 kts 47°
2026-04-28 16:46 47.15231 27.63087 1100 ft 82 kts 24°
2026-04-28 16:46 47.15702 27.63326 896 ft 64 kts 357°
2026-04-28 16:46 47.16154 27.63312 778 ft 69 kts 348°
2026-04-28 16:47 47.16609 27.63187 595 ft 63 kts 340°
2026-04-28 16:47 47.17002 27.62962 427 ft 55 kts 329°
2026-04-28 16:47 47.17312 27.62715 360 ft 41 kts 334°
2026-04-28 16:47 47.17551 27.62508 359 ft 53 kts 328°
2026-04-28 16:48 47.17842 27.62233 541 ft 50 kts 326°
2026-04-28 16:48 47.18176 27.61924 645 ft 57 kts 331°
2026-04-28 16:48 47.18531 27.61639 774 ft 57 kts 338°
2026-04-28 16:48 47.18902 27.61800 927 ft 64 kts 40°
2026-04-28 16:49 47.18975 27.62520 997 ft 85 kts 107°
2026-04-28 16:49 47.18513 27.63129 1049 ft 100 kts 146°
2026-04-28 16:49 47.17897 27.63714 1056 ft 107 kts 148°
2026-04-28 16:49 47.17278 27.64310 1010 ft 101 kts 145°
2026-04-28 16:50 47.16691 27.64755 935 ft 90 kts 180°
2026-04-28 16:50 47.16269 27.64283 710 ft 69 kts 275°
2026-04-28 16:50 47.16417 27.63658 631 ft 70 kts 316°
2026-04-28 16:50 47.16794 27.63178 510 ft 71 kts 327°
2026-04-28 16:51 47.17163 27.62845 380 ft 55 kts 331°
2026-04-28 16:51 47.17433 27.62609 357 ft 35 kts 330°
2026-04-28 16:51 47.17603 27.62465 360 ft 22 kts 329°
2026-04-28 16:51 47.17730 27.62353 363 ft 19 kts 328°
2026-04-28 16:52 47.17818 27.62272 366 ft 12 kts 324°
2026-04-28 16:52 47.17837 27.62182 368 ft 8 kts 240°
2026-04-28 16:52 47.17812 27.62093 370 ft 12 kts 237°
2026-04-28 16:52 47.17779 27.61996 371 ft 10 kts 244°
2026-04-28 16:53 47.17757 27.61930 372 ft 11 kts 244°
2026-04-28 16:53 47.17752 27.61865 372 ft 4 kts 305°
2026-04-28 16:53 47.17748 27.61837 372 ft 3 kts 228°
2026-04-28 16:53 47.17750 27.61819 373 ft 0 kts 294°